Time,TemperatureF,DewpointF,PressureIn,WindDirection,WindDirectionDegrees,WindSpeedMPH,WindSpeedGustMPH,Humidity,HourlyPrecipIn,Conditions,Clouds,dailyrainin,SoftwareType,DateUTC
2013-10-18 00:03:00,40.9,38.0,29.97,WNW,290,7.0,16.0,88,0.00,,,0.00,weatherlink.com 1.10,2013-10-18 05:03:00,
2013-10-18 00:18:00,41.0,38.0,29.97,NW,307,6.0,14.0,88,0.00,,,0.00,weatherlink.com 1.10,2013-10-18 05:18:00,
2013-10-18 00:33:00,41.1,38.0,29.97,WNW,293,6.0,14.0,87,0.00,,,0.00,weatherlink.com 1.10,2013-10-18 05:33:00,
2013-10-18 00:48:00,41.2,38.0,29.97,WNW,295,3.0,11.0,87,0.00,,,0.00,weatherlink.com 1.10,2013-10-18 05:48:00,
2013-10-18 01:03:00,41.3,37.0,29.97,WNW,295,6.0,12.0,86,0.00,,,0.00,weatherlink.com 1.10,2013-10-18 06:03:00,
2013-10-18 01:19:00,41.4,38.0,29.97,WNW,293,6.0,12.0,86,0.00,,,0.00,weatherlink.com 1.10,2013-10-18 06:19:00,
2013-10-18 01:33:00,41.4,38.0,29.97,WNW,301,2.0,12.0,87,0.00,,,0.00,weatherlink.com 1.10,2013-10-18 06:33:00,
2013-10-18 01:48:00,41.4,38.0,29.97,NW,310,7.0,10.0,86,0.00,,,0.00,weatherlink.com 1.10,2013-10-18 06:48:00,
2013-10-18 02:03:00,41.4,37.0,29.97,WNW,297,8.0,8.0,85,0.00,,,0.00,weatherlink.com 1.10,2013-10-18 07:03:00,
2013-10-18 02:18:00,41.4,37.0,29.97,WNW,297,5.0,9.0,85,0.00,,,0.00,weatherlink.com 1.10,2013-10-18 07:18:00,
2013-10-18 02:33:00,41.4,37.0,29.97,NW,312,4.0,9.0,85,0.00,,,0.00,weatherlink.com 1.10,2013-10-18 07:33:00,
2013-10-18 02:48:00,41.4,37.0,29.97,WNW,302,5.0,9.0,84,0.00,,,0.00,weatherlink.com 1.10,2013-10-18 07:48:00,
2013-10-18 03:03:00,41.2,37.0,29.97,WNW,293,3.0,6.0,84,0.00,,,0.00,weatherlink.com 1.10,2013-10-18 08:03:00,
2013-10-18 03:18:00,41.1,37.0,29.98,NW,317,4.0,8.0,84,0.00,,,0.00,weatherlink.com 1.10,2013-10-18 08:18:00,
2013-10-18 03:33:00,40.8,37.0,29.98,WNW,293,3.0,5.0,85,0.00,,,0.00,weatherlink.com 1.10,2013-10-18 08:33:00,
2013-10-18 03:48:00,40.4,37.0,29.98,NW,307,3.0,5.0,86,0.00,,,0.00,weatherlink.com 1.10,2013-10-18 08:48:00,
2013-10-18 04:03:00,40.1,36.0,29.99,WNW,299,2.0,6.0,86,0.00,,,0.00,weatherlink.com 1.10,2013-10-18 09:03:00,
2013-10-18 04:18:00,40.0,36.0,29.99,WNW,300,6.0,6.0,86,0.00,,,0.00,weatherlink.com 1.10,2013-10-18 09:18:00,
2013-10-18 04:33:00,39.9,36.0,29.99,NW,313,3.0,7.0,86,0.00,,,0.00,weatherlink.com 1.10,2013-10-18 09:33:00,
2013-10-18 04:48:00,40.0,36.0,29.99,NW,317,3.0,8.0,85,0.00,,,0.00,weatherlink.com 1.10,2013-10-18 09:48:00,
2013-10-18 05:03:00,40.0,36.0,29.99,NW,318,3.0,5.0,85,0.00,,,0.00,weatherlink.com 1.10,2013-10-18 10:03:00,
2013-10-18 05:19:00,40.0,36.0,29.99,WNW,303,5.0,9.0,84,0.00,,,0.00,weatherlink.com 1.10,2013-10-18 10:19:00,
2013-10-18 05:34:00,40.1,36.0,30.00,WNW,302,3.0,5.0,84,0.00,,,0.00,weatherlink.com 1.10,2013-10-18 10:34:00,
2013-10-18 05:49:00,40.0,36.0,30.00,WNW,298,4.0,7.0,84,0.00,,,0.00,weatherlink.com 1.10,2013-10-18 10:49:00,
2013-10-18 06:04:00,40.1,35.0,30.00,NW,304,4.0,7.0,83,0.00,,,0.00,weatherlink.com 1.10,2013-10-18 11:04:00,
2013-10-18 06:19:00,40.1,35.0,30.00,NW,308,4.0,9.0,83,0.00,,,0.00,weatherlink.com 1.10,2013-10-18 11:19:00,
2013-10-18 06:34:00,40.0,35.0,30.01,NNW,327,4.0,11.0,82,0.00,,,0.00,weatherlink.com 1.10,2013-10-18 11:34:00,
2013-10-18 06:49:00,39.5,34.0,30.02,WNW,293,7.0,13.0,81,0.00,,,0.00,weatherlink.com 1.10,2013-10-18 11:49:00,
2013-10-18 07:04:00,38.9,35.0,30.02,WNW,295,6.0,10.0,84,0.00,,,0.00,weatherlink.com 1.10,2013-10-18 12:04:00,
2013-10-18 07:19:00,38.9,35.0,30.03,NW,304,3.0,10.0,85,0.00,,,0.00,weatherlink.com 1.10,2013-10-18 12:19:00,
2013-10-18 07:34:00,38.9,34.0,30.04,WNW,289,3.0,10.0,83,0.00,,,0.00,weatherlink.com 1.10,2013-10-18 12:34:00,
2013-10-18 07:49:00,38.6,34.0,30.04,NW,304,4.0,11.0,83,0.00,,,0.00,weatherlink.com 1.10,2013-10-18 12:49:00,
2013-10-18 08:04:00,38.8,34.0,30.04,WNW,303,4.0,11.0,82,0.00,,,0.00,weatherlink.com 1.10,2013-10-18 13:04:00,
2013-10-18 08:19:00,39.2,34.0,30.04,NW,304,5.0,8.0,81,0.00,,,0.00,weatherlink.com 1.10,2013-10-18 13:19:00,
2013-10-18 08:34:00,39.5,34.0,30.05,WNW,299,3.0,13.0,79,0.00,,,0.00,weatherlink.com 1.10,2013-10-18 13:34:00,
2013-10-18 08:49:00,39.4,33.0,30.05,WNW,302,4.0,9.0,79,0.00,,,0.00,weatherlink.com 1.10,2013-10-18 13:49:00,
2013-10-18 09:04:00,39.5,34.0,30.05,WNW,302,4.0,10.0,79,0.00,,,0.00,weatherlink.com 1.10,2013-10-18 14:04:00,
2013-10-18 09:19:00,40.3,34.0,30.05,NW,307,5.0,9.0,78,0.00,,,0.00,weatherlink.com 1.10,2013-10-18 14:19:00,
2013-10-18 09:34:00,41.3,33.0,30.05,NW,316,3.0,13.0,73,0.00,,,0.00,weatherlink.com 1.10,2013-10-18 14:34:00,
2013-10-18 09:49:00,42.4,33.0,30.06,WNW,298,12.0,15.0,70,0.00,,,0.00,weatherlink.com 1.10,2013-10-18 14:49:00,
2013-10-18 10:04:00,43.2,32.0,30.06,NNW,338,8.0,13.0,65,0.00,,,0.00,weatherlink.com 1.10,2013-10-18 15:04:00,
2013-10-18 10:19:00,44.2,33.0,30.07,NW,305,3.0,14.0,64,0.00,,,0.00,weatherlink.com 1.10,2013-10-18 15:19:00,
2013-10-18 10:34:00,45.1,32.0,30.07,NW,307,6.0,12.0,61,0.00,,,0.00,weatherlink.com 1.10,2013-10-18 15:34:00,
2013-10-18 10:49:00,45.7,32.0,30.07,NW,309,8.0,12.0,60,0.00,,,0.00,weatherlink.com 1.10,2013-10-18 15:49:00,
2013-10-18 11:04:00,46.5,31.0,30.06,NW,318,10.0,15.0,56,0.00,,,0.00,weatherlink.com 1.10,2013-10-18 16:04:00,
2013-10-18 11:19:00,47.2,31.0,30.07,NW,311,7.0,15.0,53,0.00,,,0.00,weatherlink.com 1.10,2013-10-18 16:19:00,
2013-10-18 11:34:00,47.8,30.0,30.07,WNW,295,4.0,11.0,51,0.00,,,0.00,weatherlink.com 1.10,2013-10-18 16:34:00,
2013-10-18 11:49:00,48.0,29.0,30.07,NW,306,6.0,15.0,48,0.00,,,0.00,weatherlink.com 1.10,2013-10-18 16:49:00,
2013-10-18 12:04:00,48.0,28.0,30.07,WNW,285,7.0,19.0,47,0.00,,,0.00,weatherlink.com 1.10,2013-10-18 17:04:00,
2013-10-18 12:19:00,47.9,28.0,30.05,NNW,335,9.0,17.0,46,0.00,,,0.00,weatherlink.com 1.10,2013-10-18 17:19:00,
2013-10-18 12:34:00,48.8,29.0,30.05,NW,325,8.0,12.0,47,0.00,,,0.00,weatherlink.com 1.10,2013-10-18 17:34:00,
2013-10-18 12:50:00,48.5,28.0,30.05,WNW,292,5.0,14.0,45,0.00,,,0.00,weatherlink.com 1.10,2013-10-18 17:50:00,
2013-10-18 13:05:00,49.1,29.0,30.04,NW,326,12.0,12.0,46,0.00,,,0.00,weatherlink.com 1.10,2013-10-18 18:05:00,
2013-10-18 13:20:00,48.8,28.0,30.04,NW,311,3.0,13.0,45,0.00,,,0.00,weatherlink.com 1.10,2013-10-18 18:20:00,
2013-10-18 13:35:00,49.3,28.0,30.03,NNW,333,3.0,9.0,44,0.00,,,0.00,weatherlink.com 1.10,2013-10-18 18:35:00,
2013-10-18 13:50:00,49.6,28.0,30.03,NW,308,6.0,11.0,44,0.00,,,0.00,weatherlink.com 1.10,2013-10-18 18:50:00,
2013-10-18 14:05:00,50.3,28.0,30.02,NW,319,5.0,14.0,43,0.00,,,0.00,weatherlink.com 1.10,2013-10-18 19:05:00,
2013-10-18 14:35:00,48.8,27.0,30.02,NW,304,1.0,5.0,43,0.00,,,0.00,weatherlink.com 1.10,2013-10-18 19:35:00,
2013-10-18 14:50:00,48.6,28.0,30.01,NW,305,5.0,11.0,46,0.00,,,0.00,weatherlink.com 1.10,2013-10-18 19:50:00,
2013-10-18 15:05:00,48.7,27.0,30.01,NW,305,5.0,9.0,43,0.00,,,0.00,weatherlink.com 1.10,2013-10-18 20:05:00,
2013-10-18 15:20:00,50.3,28.0,30.01,NW,305,2.0,9.0,43,0.00,,,0.00,weatherlink.com 1.10,2013-10-18 20:20:00,
2013-10-18 15:35:00,50.0,27.0,30.01,NW,309,4.0,10.0,41,0.00,,,0.00,weatherlink.com 1.10,2013-10-18 20:35:00,
2013-10-18 15:50:00,50.1,27.0,30.01,WNW,286,2.0,11.0,41,0.00,,,0.00,weatherlink.com 1.10,2013-10-18 20:50:00,
2013-10-18 16:05:00,50.0,26.0,30.01,WNW,282,2.0,8.0,40,0.00,,,0.00,weatherlink.com 1.10,2013-10-18 21:05:00,
2013-10-18 16:20:00,50.0,26.0,30.00,West,272,3.0,5.0,40,0.00,,,0.00,weatherlink.com 1.10,2013-10-18 21:20:00,
2013-10-18 16:35:00,49.7,27.0,30.00,WNW,284,2.0,6.0,41,0.00,,,0.00,weatherlink.com 1.10,2013-10-18 21:35:00,
2013-10-18 16:50:00,49.7,27.0,30.00,NW,311,2.0,6.0,41,0.00,,,0.00,weatherlink.com 1.10,2013-10-18 21:50:00,
2013-10-18 17:05:00,49.1,27.0,30.00,NW,314,1.0,4.0,42,0.00,,,0.00,weatherlink.com 1.10,2013-10-18 22:05:00,
2013-10-18 17:20:00,48.9,27.0,30.00,WNW,296,1.0,3.0,43,0.00,,,0.00,weatherlink.com 1.10,2013-10-18 22:20:00,
2013-10-18 17:35:00,48.3,28.0,30.00,NW,307,0.0,1.0,46,0.00,,,0.00,weatherlink.com 1.10,2013-10-18 22:35:00,
2013-10-18 17:50:00,48.2,29.0,30.00,WNW,297,0.0,1.0,48,0.00,,,0.00,weatherlink.com 1.10,2013-10-18 22:50:00,
2013-10-18 18:05:00,47.6,29.0,29.99,WNW,297,0.0,1.0,48,0.00,,,0.00,weatherlink.com 1.10,2013-10-18 23:05:00,
2013-10-18 18:20:00,47.0,28.0,30.00,West,271,0.0,1.0,48,0.00,,,0.00,weatherlink.com 1.10,2013-10-18 23:20:00,
2013-10-18 18:35:00,47.1,28.0,30.00,West,269,0.0,1.0,48,0.00,,,0.00,weatherlink.com 1.10,2013-10-18 23:35:00,
2013-10-18 18:50:00,46.8,28.0,30.00,WSW,255,1.0,3.0,49,0.00,,,0.00,weatherlink.com 1.10,2013-10-18 23:50:00,
2013-10-18 19:05:00,46.7,28.0,30.00,WSW,250,1.0,3.0,49,0.00,,,0.00,weatherlink.com 1.10,2013-10-19 00:05:00,
2013-10-18 19:20:00,46.0,30.0,30.00,West,269,0.0,1.0,53,0.00,,,0.00,weatherlink.com 1.10,2013-10-19 00:20:00,
2013-10-18 19:35:00,45.7,28.0,30.00,West,269,1.0,4.0,51,0.00,,,0.00,weatherlink.com 1.10,2013-10-19 00:35:00,
2013-10-18 19:50:00,45.9,28.0,29.99,West,259,3.0,6.0,50,0.00,,,0.00,weatherlink.com 1.10,2013-10-19 00:50:00,
2013-10-18 20:05:00,45.1,30.0,29.99,WSW,258,3.0,6.0,55,0.00,,,0.00,weatherlink.com 1.10,2013-10-19 01:05:00,
2013-10-18 20:20:00,45.0,29.0,29.98,West,270,2.0,5.0,54,0.00,,,0.00,weatherlink.com 1.10,2013-10-19 01:20:00,
2013-10-18 20:35:00,44.3,30.0,29.98,WSW,241,4.0,5.0,57,0.00,,,0.00,weatherlink.com 1.10,2013-10-19 01:35:00,
2013-10-18 20:50:00,43.7,30.0,29.98,West,260,4.0,5.0,58,0.00,,,0.00,weatherlink.com 1.10,2013-10-19 01:50:00,
2013-10-18 21:05:00,43.4,30.0,29.98,WSW,246,4.0,5.0,59,0.00,,,0.00,weatherlink.com 1.10,2013-10-19 02:05:00,
2013-10-18 21:20:00,41.3,31.0,29.98,WSW,237,4.0,5.0,66,0.00,,,0.00,weatherlink.com 1.10,2013-10-19 02:20:00,
2013-10-18 21:35:00,41.7,30.0,29.98,West,264,3.0,7.0,63,0.00,,,0.00,weatherlink.com 1.10,2013-10-19 02:35:00,
2013-10-18 21:50:00,40.5,30.0,29.98,WSW,240,4.0,5.0,67,0.00,,,0.00,weatherlink.com 1.10,2013-10-19 02:50:00,
2013-10-18 22:05:00,39.4,30.0,29.97,WSW,241,5.0,5.0,69,0.00,,,0.00,weatherlink.com 1.10,2013-10-19 03:05:00,
2013-10-18 22:20:00,38.9,30.0,29.97,WSW,239,6.0,6.0,70,0.00,,,0.00,weatherlink.com 1.10,2013-10-19 03:20:00,
2013-10-18 22:35:00,37.8,30.0,29.97,SW,227,3.0,6.0,73,0.00,,,0.00,weatherlink.com 1.10,2013-10-19 03:35:00,
2013-10-18 22:50:00,37.1,30.0,29.97,SW,234,5.0,6.0,76,0.00,,,0.00,weatherlink.com 1.10,2013-10-19 03:50:00,
2013-10-18 23:05:00,38.6,31.0,29.97,SW,230,8.0,10.0,73,0.00,,,0.00,weatherlink.com 1.10,2013-10-19 04:05:00,
2013-10-18 23:20:00,38.8,31.0,29.97,West,263,2.0,8.0,74,0.00,,,0.00,weatherlink.com 1.10,2013-10-19 04:20:00,
2013-10-18 23:35:00,38.2,31.0,29.96,West,267,1.0,6.0,76,0.00,,,0.00,weatherlink.com 1.10,2013-10-19 04:35:00,
2013-10-18 23:50:00,37.3,31.0,29.96,SW,221,4.0,4.0,78,0.00,,,0.00,weatherlink.com 1.10,2013-10-19 04:50:00,